DELTA 1 DEB, 10643

Orbit data source: Space-Track

DELTA 1 DEB, 10643 is space debris in SSO originally from a launch on Thu, 29 Jul 1976 UTC launched from the Air Force Western Test Range (AFWTR). Debris objects in space refer to the collection of defunct objects orbiting the Earth. Examples of debris include non-operational satellites, rocket bodies, and fragments generated from explosions, collisions, or faulty payload assembly.

Loading next visibility...
Identifier
10643, 1976-077D
Orbit
SSO
Country
Flag of USUS
Related business
Manufacturer
Unknown
Mission
Spacecraft
Bus & Motor
Unknown
Mass
Unknown
Launch date (UTC)
1976-07-29 (50 years ago)
Launch vehicle
Unknown
Launch site
Air Force Western Test Range (AFWTR)
Object type
Payload
Rocket body
Debris
Shape & HBR
Unknown shape, 0.1 m
Radar Cross Section
Medium (>0.1 m² and <1 m²)

Expand to show TLE details & history
Last TLE update: 1 day ago

TLE from 1 day ago
0 DELTA 1 DEB
1 10643U 76077D   26255.39061051  .00000036  00000-0  81735-3 0  9992
2 10643 102.1327 211.1317 0168920 215.9515 299.0534 12.10389994214939
Epoch: 2026-09-12T09:22Z
TLE epoch observation values (Epoch: 2026-09-12T09:22:28.748Z)
Latitude
26.09571°
Longitude
-94.87358°
Altitude
1,573.519 km
Speed
7.112 km/s
True Right ascension
02h 28m 35s
True Declination
25° 58' 27"
Sunlit
Object was in daylight at epoch
Visualization orbit readout
Latitude
Unknown
Longitude
Unknown
Altitude
Unknown
Speed
Unknown
Apparent Right ascension
Unknown
Apparent Declination
Unknown
Sunlit
N/A
Visualization observer readout
Local Sidereal Time
01:48:01
Azimuth
Unknown
Elevation
Unknown
Doppler factor
Unknown
Orbital elements
Apogee altitude
1,767.608 km
Perigee altitude
1,496.983 km
Semi-major axis
8,010.433 km
Eccentricity
0.01689
Inclination
102.1327°
RAAN
211.1317°
Arg. of periapsis
215.9515°
True anomaly
297.34402°
Mean anomaly
299.0534°
Eccentric anomaly
298.20044°
Mean motion
3.02733 °/min
Orbital period
118.92 mins
BSTAR
0.00081735
Loading maneuver chart data...
Computing Atmospheric mass density...
Loading historical data...
Loading historical data...
Loading historical data...
Loading historical data...
Loading historical data...
Loading historical data...
Loading historical data...

Documentation

Showing up to 5 results
|